EW6472 Weather Reports


Display with metric or nautical units.
time (UTC)temp
F
wind
direction
speed
MPH
gust
MPH
rain 1hr
in
rain 24hr
in
rain mn
in
humidity
%
barometer
mb
20260503180100 60 214 1.0 5.0 0.00 0.00 0.00 78 1012.6
20260503174555 61 158 1.0 4.0 0.00 0.00 0.00 79 1012.6
20260503173051 61 225 2.0 5.0 0.00 0.00 0.00 79 1012.4
20260503171550 61 127 3.0 6.0 0.00 0.00 0.00 79 1012.2
20260503081557 58 198 1.0 4.0 0.00 0.00 0.00 88 1011.1
20260503080104 58 213 2.0 5.0 0.00 0.00 0.00 87 1011.2
20260503071605 59 200 3.0 6.0 0.00 0.00 0.00 88 1010.8
20260503054605 59 235 0.0 1.0 0.00 0.00 0.00 85 1010.4
20260503053046 59 231 0.0 2.0 0.00 0.00 0.00 84 1010.5
20260503051545 60 244 0.0 4.0 0.00 0.00 0.00 84 1010.6
20260503050044 60 219 1.0 3.0 0.00 0.00 0.00 83 1010.6
20260503044546 60 238 1.0 4.0 0.00 0.00 0.00 82 1010.5
20260503043052 60 182 1.0 6.0 0.00 0.00 0.00 82 1010.3
20260503041543 61 192 1.0 5.0 0.00 0.00 0.00 81 1010.1
20260503040046 61 230 2.0 8.0 0.00 0.00 0.00 81 1010.0
20260503034547 61 228 2.0 8.0 0.00 0.00 0.00 79 1009.6
20260503033042 62 219 2.0 6.0 0.00 0.00 0.00 78 1009.2
20260503031542 63 221 3.0 7.0 0.00 0.00 0.00 76 1009.1
20260503030040 63 236 1.0 5.0 0.00 0.00 0.00 74 1008.8
20260503024539 64 250 1.0 7.0 0.00 0.00 0.00 73 1008.6
20260503023039 65 252 2.0 7.0 0.00 0.00 0.00 71 1008.4
20260503021537 67 160 3.0 8.0 0.00 0.00 0.00 69 1008.1
20260503020037 68 238 4.0 9.0 0.00 0.00 0.00 67 1008.0
20260503014536 69 239 4.0 9.0 0.00 0.00 0.00 66 1008.0
20260503013041 70 227 3.0 7.0 0.00 0.00 0.00 65 1007.9
20260503011536 70 238 2.0 7.0 0.00 0.00 0.00 64 1007.9
20260503010034 71 182 2.0 5.0 0.00 0.00 0.00 64 1007.9
20260503004536 71 230 3.0 7.0 0.00 0.00 0.00 63 1007.9
20260503003042 72 246 2.0 7.0 0.00 0.00 0.00 62 1008.1
20260503001536 72 235 4.0 10.0 0.00 0.00 0.00 62 1008.1
20260503000027 73 155 5.0 9.0 0.00 0.00 0.00 61 1008.0
20260502234537 73 238 4.0 10.0 0.00 0.00 0.00 61 1008.1
20260502233037 74 163 2.0 11.0 0.00 0.00 0.00 61 1008.0
20260502231524 74 162 3.0 10.0 0.00 0.00 0.00 61 1008.1
20260502230031 74 255 4.0 11.0 0.00 0.00 0.00 60 1008.3
20260502224520 74 300 3.0 10.0 0.00 0.00 0.00 61 1008.6
20260502223024 74 241 4.0 9.0 0.00 0.00 0.00 60 1009.0
20260502221515 74 230 2.0 10.0 0.00 0.00 0.00 61 1009.1
20260502220015 74 200 4.0 9.0 0.00 0.00 0.00 60 1009.4
20260502214508 74 243 2.0 11.0 0.00 0.00 0.00 61 1009.6
20260502213006 74 270 2.0 11.0 0.00 0.00 0.00 62 1009.9
20260502211503 73 215 4.0 7.0 0.00 0.00 0.00 62 1010.1
20260502210001 72 241 5.0 11.0 0.00 0.00 0.00 63 1010.1
20260502204559 72 245 5.0 9.0 0.00 0.00 0.00 64 1010.2
20260502203057 72 200 3.0 8.0 0.00 0.00 0.00 66 1010.4
20260502201554 72 278 3.0 8.0 0.00 0.00 0.00 66 1010.5
20260502200053 72 264 2.0 6.0 0.00 0.00 0.00 66 1010.5
20260502194556 70 241 2.0 8.0 0.00 0.00 0.00 69 1011.0
20260502193048 71 244 3.0 7.0 0.00 0.00 0.00 67 1011.3
20260502191548 70 231 2.0 9.0 0.00 0.00 0.00 68 1011.5
20260502190048 70 157 2.0 6.0 0.00 0.00 0.00 71 1011.7
20260502184541 68 274 1.0 5.0 0.00 0.00 0.00 73 1011.5
20260502183039 68 266 1.0 5.0 0.00 0.00 0.00 74 1011.8
20260502181543 67 254 1.0 5.0 0.00 0.00 0.00 74 1012.0